Year,Month,Day,Hour,Minute,Value (Times are PST for temperature in C)
2010,09,01,00,00,13.50
2010,09,01,00,01,13.50
2010,09,01,00,02,13.50
2010,09,01,00,03,13.50
2010,09,01,00,04,13.50
2010,09,01,00,05,13.50
2010,09,01,00,06,13.50
2010,09,01,00,07,13.50
2010,09,01,00,08,13.50
2010,09,01,00,09,13.50
2010,09,01,00,10,13.50
2010,09,01,00,11,13.50
2010,09,01,00,12,13.50
2010,09,01,00,13,13.50
2010,09,01,00,14,13.50
2010,09,01,00,15,13.60
2010,09,01,00,16,13.60
2010,09,01,00,17,13.60
2010,09,01,00,18,13.60
2010,09,01,00,19,13.60
2010,09,01,00,20,13.60
2010,09,01,00,21,13.60
2010,09,01,00,22,13.60
2010,09,01,00,23,13.60
2010,09,01,00,24,13.60
2010,09,01,00,25,13.60
2010,09,01,00,26,13.60
2010,09,01,00,27,13.60
2010,09,01,00,28,13.60
2010,09,01,00,29,13.60
2010,09,01,00,30,13.60
2010,09,01,00,31,13.60
2010,09,01,00,32,13.70
2010,09,01,00,33,13.70
2010,09,01,00,34,13.70
2010,09,01,00,35,13.70
2010,09,01,00,36,13.70
2010,09,01,00,37,13.70
2010,09,01,00,38,13.70
2010,09,01,00,39,13.70
2010,09,01,00,40,13.70
2010,09,01,00,41,13.70
2010,09,01,00,42,13.70
2010,09,01,00,43,13.70
2010,09,01,00,44,13.70
2010,09,01,00,45,13.70
2010,09,01,00,46,13.70
2010,09,01,00,47,13.70
2010,09,01,00,48,13.70
2010,09,01,00,49,13.70
2010,09,01,00,50,13.70
2010,09,01,00,51,13.70
2010,09,01,00,52,13.70
2010,09,01,00,53,13.70
2010,09,01,00,54,13.80
2010,09,01,00,55,13.80
2010,09,01,00,56,13.70
2010,09,01,00,57,13.70
2010,09,01,00,58,13.80
2010,09,01,00,59,13.80
2010,09,01,01,00,13.80
2010,09,01,01,01,13.80
2010,09,01,01,02,13.80
2010,09,01,01,03,13.80
2010,09,01,01,04,13.80
2010,09,01,01,05,13.80
2010,09,01,01,06,13.80
2010,09,01,01,07,13.80
2010,09,01,01,08,13.80
2010,09,01,01,09,13.80
2010,09,01,01,10,13.80
2010,09,01,01,11,13.80
2010,09,01,01,12,13.80
2010,09,01,01,13,13.80
2010,09,01,01,14,13.80
2010,09,01,01,15,13.80
2010,09,01,01,16,13.80
2010,09,01,01,17,13.80
2010,09,01,01,18,13.80
2010,09,01,01,19,13.80
2010,09,01,01,20,13.80
2010,09,01,01,21,13.80
2010,09,01,01,22,13.80
2010,09,01,01,23,13.80
2010,09,01,01,24,13.70
2010,09,01,01,25,13.70
2010,09,01,01,26,13.70
2010,09,01,01,27,13.70
2010,09,01,01,28,13.70
2010,09,01,01,29,13.70
2010,09,01,01,30,13.70
2010,09,01,01,31,13.70
2010,09,01,01,32,13.70
2010,09,01,01,33,13.60
2010,09,01,01,34,13.60
2010,09,01,01,35,13.60
2010,09,01,01,36,13.60
2010,09,01,01,37,13.60
2010,09,01,01,38,13.60
2010,09,01,01,39,13.50
2010,09,01,01,40,13.50
2010,09,01,01,41,13.50
2010,09,01,01,42,13.50
2010,09,01,01,43,13.40
2010,09,01,01,44,13.40
2010,09,01,01,45,13.40
2010,09,01,01,46,13.40
2010,09,01,01,47,13.40
2010,09,01,01,48,13.40
2010,09,01,01,49,13.40
2010,09,01,01,50,13.40
2010,09,01,01,51,13.30
2010,09,01,01,52,13.30
2010,09,01,01,53,13.30
2010,09,01,01,54,13.30
2010,09,01,01,55,13.30
2010,09,01,01,56,13.30
2010,09,01,01,57,13.30
2010,09,01,01,58,13.30
2010,09,01,01,59,13.30
2010,09,01,02,00,13.30
2010,09,01,02,01,13.30
2010,09,01,02,02,13.30
2010,09,01,02,03,13.30
2010,09,01,02,04,13.30
2010,09,01,02,05,13.30
2010,09,01,02,06,13.30
2010,09,01,02,07,13.30
2010,09,01,02,08,13.30
2010,09,01,02,09,13.30
2010,09,01,02,10,13.30
2010,09,01,02,11,13.30
2010,09,01,02,12,13.30
2010,09,01,02,13,13.30
2010,09,01,02,14,13.30
2010,09,01,02,15,13.30
2010,09,01,02,16,13.30
2010,09,01,02,17,13.30
2010,09,01,02,18,13.40
2010,09,01,02,19,13.40
2010,09,01,02,20,13.30
2010,09,01,02,21,13.40
2010,09,01,02,22,13.40
2010,09,01,02,23,13.40
2010,09,01,02,24,13.40
2010,09,01,02,25,13.40
2010,09,01,02,26,13.40
2010,09,01,02,27,13.40
2010,09,01,02,28,13.50
2010,09,01,02,29,13.50
2010,09,01,02,30,13.50
2010,09,01,02,31,13.60
2010,09,01,02,32,13.60
2010,09,01,02,33,13.60
2010,09,01,02,34,13.60
2010,09,01,02,35,13.60
2010,09,01,02,36,13.70
2010,09,01,02,37,13.70
2010,09,01,02,38,13.70
2010,09,01,02,39,13.70
2010,09,01,02,40,13.70
2010,09,01,02,41,13.70
2010,09,01,02,42,13.70
2010,09,01,02,43,13.70
2010,09,01,02,44,13.70
2010,09,01,02,45,13.70
2010,09,01,02,46,13.70
2010,09,01,02,47,13.70
2010,09,01,02,48,13.70
2010,09,01,02,49,13.70
2010,09,01,02,50,13.70
2010,09,01,02,51,13.70
2010,09,01,02,52,13.70
2010,09,01,02,53,13.70
2010,09,01,02,54,13.80
2010,09,01,02,55,13.70
2010,09,01,02,56,13.80
2010,09,01,02,57,13.80
2010,09,01,02,58,13.70
2010,09,01,02,59,13.70
2010,09,01,03,00,13.70
2010,09,01,03,01,13.70
2010,09,01,03,06,13.70
2010,09,01,03,07,13.60
2010,09,01,03,08,13.60
2010,09,01,03,09,13.60
2010,09,01,03,10,13.60
2010,09,01,03,11,13.60
2010,09,01,03,12,13.60
2010,09,01,03,13,13.50
2010,09,01,03,14,13.50
2010,09,01,03,15,13.50
2010,09,01,03,16,13.40
2010,09,01,03,17,13.40
2010,09,01,03,18,13.40
2010,09,01,03,19,13.40
2010,09,01,03,20,13.30
2010,09,01,03,21,13.30
2010,09,01,03,22,13.30
2010,09,01,03,23,13.30
2010,09,01,03,24,13.30
2010,09,01,03,25,13.20
2010,09,01,03,26,13.20
2010,09,01,03,27,13.20
2010,09,01,03,28,13.20
2010,09,01,03,29,13.10
2010,09,01,03,30,13.10
2010,09,01,03,31,13.10
2010,09,01,03,32,13.00
2010,09,01,03,33,13.00
2010,09,01,03,34,12.90
2010,09,01,03,35,12.90
2010,09,01,03,36,12.90
2010,09,01,03,37,12.90
2010,09,01,03,38,12.80
2010,09,01,03,39,12.80
2010,09,01,03,40,12.80
2010,09,01,03,41,12.70
2010,09,01,03,42,12.70
2010,09,01,03,43,12.70
2010,09,01,03,44,12.70
2010,09,01,03,45,12.60
2010,09,01,03,46,12.60
2010,09,01,03,47,12.60
2010,09,01,03,48,12.50
2010,09,01,03,49,12.50
2010,09,01,03,50,12.50
2010,09,01,03,51,12.40
2010,09,01,03,52,12.40
2010,09,01,03,53,12.40
2010,09,01,03,54,12.40
2010,09,01,03,55,12.30
2010,09,01,03,56,12.30
2010,09,01,03,57,12.30
2010,09,01,03,58,12.30
2010,09,01,03,59,12.30
2010,09,01,04,00,12.20
2010,09,01,04,01,12.20
2010,09,01,04,02,12.20
2010,09,01,04,03,12.20
2010,09,01,04,04,12.10
2010,09,01,04,05,12.10
2010,09,01,04,06,12.10
2010,09,01,04,07,12.10
2010,09,01,04,08,12.10
2010,09,01,04,09,12.10
2010,09,01,04,10,12.10
2010,09,01,04,11,12.20
2010,09,01,04,12,12.20
2010,09,01,04,13,12.20
2010,09,01,04,14,12.20
2010,09,01,04,15,12.30
2010,09,01,04,16,12.30
2010,09,01,04,17,12.30
2010,09,01,04,18,12.40
2010,09,01,04,19,12.40
2010,09,01,04,20,12.40
2010,09,01,04,21,12.40
2010,09,01,04,22,12.50
2010,09,01,04,23,12.50
2010,09,01,04,24,12.50
2010,09,01,04,25,12.50
2010,09,01,04,26,12.60
2010,09,01,04,27,12.60
2010,09,01,04,28,12.50
2010,09,01,04,29,12.50
2010,09,01,04,30,12.50
2010,09,01,04,31,12.50
2010,09,01,04,32,12.40
2010,09,01,04,33,12.40
2010,09,01,04,34,12.40
2010,09,01,04,35,12.30
2010,09,01,04,36,12.30
2010,09,01,04,37,12.30
2010,09,01,04,38,12.30
2010,09,01,04,39,12.20
2010,09,01,04,40,12.20
2010,09,01,04,41,12.10
2010,09,01,04,42,12.10
2010,09,01,04,43,12.10
2010,09,01,04,44,12.00
2010,09,01,04,45,12.00
2010,09,01,04,46,11.90
2010,09,01,04,47,11.90
2010,09,01,04,48,11.80
2010,09,01,04,49,11.80
2010,09,01,04,50,11.80
2010,09,01,04,51,11.70
2010,09,01,04,52,11.70
2010,09,01,04,53,11.70
2010,09,01,04,54,11.60
2010,09,01,04,55,11.60
2010,09,01,04,56,11.50
2010,09,01,04,57,11.50
2010,09,01,04,58,11.40
2010,09,01,04,59,11.40
2010,09,01,05,00,11.40
2010,09,01,05,01,11.30
2010,09,01,05,02,11.30
2010,09,01,05,03,11.30
2010,09,01,05,04,11.30
2010,09,01,05,05,11.20
2010,09,01,05,06,11.20
2010,09,01,05,07,11.20
2010,09,01,05,08,11.20
2010,09,01,05,09,11.10
2010,09,01,05,10,11.10
2010,09,01,05,11,11.10
2010,09,01,05,12,11.00
2010,09,01,05,13,11.00
2010,09,01,05,14,11.00
2010,09,01,05,15,11.00
2010,09,01,05,16,10.90
2010,09,01,05,17,10.90
2010,09,01,05,18,10.90
2010,09,01,05,19,10.90
2010,09,01,05,20,10.90
2010,09,01,05,21,10.90
2010,09,01,05,22,10.90
2010,09,01,05,23,10.90
2010,09,01,05,24,10.90
2010,09,01,05,25,10.90
2010,09,01,05,26,10.90
2010,09,01,05,27,10.90
2010,09,01,05,28,10.90
2010,09,01,05,29,10.90
2010,09,01,05,30,10.90
2010,09,01,05,31,10.90
2010,09,01,05,32,10.90
2010,09,01,05,33,10.90
2010,09,01,05,34,10.90
2010,09,01,05,35,10.90
2010,09,01,05,36,10.90
2010,09,01,05,37,10.90
2010,09,01,05,38,10.90
2010,09,01,05,39,10.90
2010,09,01,05,40,10.90
2010,09,01,05,41,10.90
2010,09,01,05,42,10.90
2010,09,01,05,43,10.90
2010,09,01,05,44,10.90
2010,09,01,05,45,10.90
2010,09,01,05,46,10.90
2010,09,01,05,47,10.90
2010,09,01,05,48,10.90
2010,09,01,05,49,10.90
2010,09,01,05,50,10.90
2010,09,01,05,51,10.90
2010,09,01,05,52,10.90
2010,09,01,05,53,10.90
2010,09,01,05,54,10.90
2010,09,01,05,55,10.90
2010,09,01,05,56,10.90
2010,09,01,05,57,10.90
2010,09,01,05,58,10.90
2010,09,01,05,59,10.90
2010,09,01,06,00,10.90
2010,09,01,06,01,10.90
2010,09,01,06,02,10.90
2010,09,01,06,03,10.90
2010,09,01,06,04,10.90
2010,09,01,06,05,10.90
2010,09,01,06,06,10.90
2010,09,01,06,07,10.80
2010,09,01,06,08,10.80
2010,09,01,06,09,10.80
2010,09,01,06,10,10.80
2010,09,01,06,11,10.90
2010,09,01,06,12,10.90
2010,09,01,06,13,10.90
2010,09,01,06,14,10.90
2010,09,01,06,15,10.90
2010,09,01,06,16,10.90
2010,09,01,06,17,10.90
2010,09,01,06,18,10.90
2010,09,01,06,19,10.90
2010,09,01,06,20,10.90
2010,09,01,06,21,11.00
2010,09,01,06,22,11.00
2010,09,01,06,23,11.00
2010,09,01,06,24,11.10
2010,09,01,06,25,11.10
2010,09,01,06,26,11.10
2010,09,01,06,27,11.10
2010,09,01,06,28,11.10
2010,09,01,06,29,11.10
2010,09,01,06,30,11.10
2010,09,01,06,31,11.10
2010,09,01,06,32,11.10
2010,09,01,06,33,11.20
2010,09,01,06,34,11.20
2010,09,01,06,35,11.20
2010,09,01,06,36,11.20
2010,09,01,06,37,11.20
2010,09,01,06,38,11.20
2010,09,01,06,39,11.20
2010,09,01,06,40,11.20
2010,09,01,06,41,11.20
2010,09,01,06,42,11.20
2010,09,01,06,43,11.20
2010,09,01,06,44,11.20
2010,09,01,06,45,11.20
2010,09,01,06,46,11.20
2010,09,01,06,47,11.20
2010,09,01,06,48,11.20
2010,09,01,06,49,11.20
2010,09,01,06,50,11.20
2010,09,01,06,51,11.20
2010,09,01,06,52,11.20
2010,09,01,06,53,11.20
2010,09,01,06,54,11.20
2010,09,01,06,55,11.20
2010,09,01,06,56,11.20
2010,09,01,06,57,11.20
2010,09,01,06,58,11.20
2010,09,01,06,59,11.20
2010,09,01,07,00,11.20
2010,09,01,07,01,11.20
2010,09,01,07,02,11.20
2010,09,01,07,03,11.20
2010,09,01,07,04,11.20
2010,09,01,07,05,11.20
2010,09,01,07,06,11.20
2010,09,01,07,07,11.20
2010,09,01,07,08,11.30
2010,09,01,07,09,11.30
2010,09,01,07,10,11.30
2010,09,01,07,11,11.30
2010,09,01,07,12,11.30
2010,09,01,07,13,11.30
2010,09,01,07,14,11.30
2010,09,01,07,15,11.40
2010,09,01,07,16,11.40
2010,09,01,07,17,11.40
2010,09,01,07,18,11.40
2010,09,01,07,19,11.40
2010,09,01,07,20,11.40
2010,09,01,07,21,11.50
2010,09,01,07,22,11.50
2010,09,01,07,23,11.50
2010,09,01,07,24,11.50
2010,09,01,07,25,11.60
2010,09,01,07,26,11.60
2010,09,01,07,27,11.60
2010,09,01,07,28,11.60
2010,09,01,07,29,11.70
2010,09,01,07,30,11.70
2010,09,01,07,31,11.70
2010,09,01,07,32,11.70
2010,09,01,07,33,11.70
2010,09,01,07,34,11.80
2010,09,01,07,35,11.80
2010,09,01,07,36,11.80
2010,09,01,07,37,11.80
2010,09,01,07,38,11.80
2010,09,01,07,39,11.90
2010,09,01,07,40,11.90
2010,09,01,07,41,11.90
2010,09,01,07,42,12.00
2010,09,01,07,43,12.00
2010,09,01,07,44,12.10
2010,09,01,07,45,12.10
2010,09,01,07,46,12.10
2010,09,01,07,47,12.20
2010,09,01,07,48,12.20
2010,09,01,07,49,12.20
2010,09,01,07,50,12.20
2010,09,01,07,51,12.30
2010,09,01,07,52,12.30
2010,09,01,07,53,12.30
2010,09,01,07,54,12.30
2010,09,01,07,55,12.40
2010,09,01,07,56,12.40
2010,09,01,07,57,12.40
2010,09,01,07,58,12.40
2010,09,01,07,59,12.50
2010,09,01,08,00,12.50
2010,09,01,08,01,12.60
2010,09,01,08,02,12.60
2010,09,01,08,03,12.60
2010,09,01,08,04,12.60
2010,09,01,08,05,12.70
2010,09,01,08,06,12.70
2010,09,01,08,07,12.70
2010,09,01,08,08,12.80
2010,09,01,08,09,12.80
2010,09,01,08,10,12.80
2010,09,01,08,11,12.80
2010,09,01,08,12,12.90
2010,09,01,08,13,12.90
2010,09,01,08,14,12.90
2010,09,01,08,15,13.00
2010,09,01,08,16,13.00
2010,09,01,08,17,13.00
2010,09,01,08,18,13.10
2010,09,01,08,19,13.10
2010,09,01,08,20,13.20
2010,09,01,08,21,13.20
2010,09,01,08,22,13.20
2010,09,01,08,23,13.30
2010,09,01,08,24,13.30
2010,09,01,08,25,13.40
2010,09,01,08,26,13.50
2010,09,01,08,27,13.60
2010,09,01,08,28,13.60
2010,09,01,08,29,13.70
2010,09,01,08,30,13.70
2010,09,01,08,31,13.80
2010,09,01,08,32,13.80
2010,09,01,08,33,13.90
2010,09,01,08,34,13.90
2010,09,01,08,35,13.90
2010,09,01,08,36,14.00
2010,09,01,08,37,14.00
2010,09,01,08,38,14.10
2010,09,01,08,39,14.10
2010,09,01,08,40,14.10
2010,09,01,08,41,14.10
2010,09,01,08,42,14.10
2010,09,01,08,43,14.10
2010,09,01,08,44,14.10
2010,09,01,08,45,14.10
2010,09,01,08,46,14.10
2010,09,01,08,47,14.10
2010,09,01,08,48,14.10
2010,09,01,08,49,14.10
2010,09,01,08,50,14.10
2010,09,01,08,51,14.10
2010,09,01,08,52,14.10
2010,09,01,08,53,14.10
2010,09,01,08,54,14.10
2010,09,01,08,55,14.10
2010,09,01,08,56,14.10
2010,09,01,08,57,14.10
2010,09,01,08,58,14.10
2010,09,01,08,59,14.10
2010,09,01,09,00,14.20
2010,09,01,09,01,14.20
2010,09,01,09,02,14.20
2010,09,01,09,03,14.20
2010,09,01,09,04,14.30
2010,09,01,09,05,14.30
2010,09,01,09,06,14.30
2010,09,01,09,07,14.40
2010,09,01,09,08,14.40
2010,09,01,09,09,14.50
2010,09,01,09,10,14.50
2010,09,01,09,11,14.60
2010,09,01,09,12,14.60
2010,09,01,09,13,14.60
2010,09,01,09,14,14.60
2010,09,01,09,15,14.70
2010,09,01,09,16,14.70
2010,09,01,09,17,14.70
2010,09,01,09,18,14.70
2010,09,01,09,19,14.70
2010,09,01,09,20,14.70
2010,09,01,09,21,14.70
2010,09,01,09,22,14.80
2010,09,01,09,23,14.80
2010,09,01,09,24,14.80
2010,09,01,09,25,14.90
2010,09,01,09,26,14.90
2010,09,01,09,27,15.00
2010,09,01,09,28,15.00
2010,09,01,09,29,15.10
2010,09,01,09,30,15.10
2010,09,01,09,31,15.20
2010,09,01,09,32,15.20
2010,09,01,09,33,15.20
2010,09,01,09,34,15.20
2010,09,01,09,35,15.20
2010,09,01,09,36,15.10
2010,09,01,09,37,15.10
2010,09,01,09,38,15.10
2010,09,01,09,39,15.10
2010,09,01,09,40,15.10
2010,09,01,09,41,15.00
2010,09,01,09,42,15.00
2010,09,01,09,43,15.00
2010,09,01,09,44,14.90
2010,09,01,09,45,14.90
2010,09,01,09,46,15.00
2010,09,01,09,47,15.00
2010,09,01,09,48,15.00
2010,09,01,09,49,15.10
2010,09,01,09,50,15.10
2010,09,01,09,51,15.10
2010,09,01,09,52,15.20
2010,09,01,09,53,15.20
2010,09,01,09,54,15.20
2010,09,01,09,55,15.30
2010,09,01,09,56,15.30
2010,09,01,09,57,15.30
2010,09,01,09,58,15.30
2010,09,01,09,59,15.40
2010,09,01,10,00,15.40
2010,09,01,10,01,15.40
2010,09,01,10,02,15.50
2010,09,01,10,03,15.50
2010,09,01,10,04,15.60
2010,09,01,10,05,15.60
2010,09,01,10,06,15.60
2010,09,01,10,07,15.60
2010,09,01,10,08,15.70
2010,09,01,10,09,15.70
2010,09,01,10,10,15.70
2010,09,01,10,11,15.60
2010,09,01,10,12,15.70
2010,09,01,10,13,15.70
2010,09,01,10,14,15.60
2010,09,01,10,15,15.60
2010,09,01,10,16,15.60
2010,09,01,10,17,15.60
2010,09,01,10,18,15.60
2010,09,01,10,19,15.60
2010,09,01,10,20,15.60
2010,09,01,10,21,15.60
2010,09,01,10,22,15.70
2010,09,01,10,23,15.70
2010,09,01,10,24,15.70
2010,09,01,10,25,15.70
2010,09,01,10,26,15.80
2010,09,01,10,27,15.80
2010,09,01,10,28,15.80
2010,09,01,10,29,15.80
2010,09,01,10,30,15.80
2010,09,01,10,31,15.80
2010,09,01,10,32,15.90
2010,09,01,10,33,15.90
2010,09,01,10,34,15.90
2010,09,01,10,35,16.00
2010,09,01,10,36,16.00
2010,09,01,10,37,16.00
2010,09,01,10,38,16.00
2010,09,01,10,39,16.00
2010,09,01,10,40,16.00
2010,09,01,10,41,15.90
2010,09,01,10,42,16.00
2010,09,01,10,43,16.00
2010,09,01,10,44,16.00
2010,09,01,10,45,16.00
2010,09,01,10,46,16.00
2010,09,01,10,47,16.00
2010,09,01,10,48,16.00
2010,09,01,10,49,16.10
2010,09,01,10,50,16.10
2010,09,01,10,51,16.10
2010,09,01,10,52,16.20
2010,09,01,10,53,16.20
2010,09,01,10,54,16.30
2010,09,01,10,55,16.30
2010,09,01,10,56,16.40
2010,09,01,10,57,16.40
2010,09,01,10,58,16.40
2010,09,01,10,59,16.40
2010,09,01,11,00,16.40
2010,09,01,11,01,16.40
2010,09,01,11,02,16.40
2010,09,01,11,03,16.50
2010,09,01,11,04,16.50
2010,09,01,11,05,16.60
2010,09,01,11,06,16.60
2010,09,01,11,07,16.60
2010,09,01,11,08,16.70
2010,09,01,11,09,16.70
2010,09,01,11,10,16.70
2010,09,01,11,11,16.70
2010,09,01,11,12,16.70
2010,09,01,11,13,16.60
2010,09,01,11,14,16.60
2010,09,01,11,15,16.60
2010,09,01,11,16,16.60
2010,09,01,11,17,16.60
2010,09,01,11,18,16.60
2010,09,01,11,19,16.60
2010,09,01,11,20,16.70
2010,09,01,11,21,16.80
2010,09,01,11,22,16.80
2010,09,01,11,23,16.80
2010,09,01,11,24,16.80
2010,09,01,11,25,16.80
2010,09,01,11,26,16.70
2010,09,01,11,27,16.60
2010,09,01,11,28,16.50
2010,09,01,11,29,16.40
2010,09,01,11,30,16.40
2010,09,01,11,31,16.40
2010,09,01,11,32,16.40
2010,09,01,11,33,16.40
2010,09,01,11,34,16.40
2010,09,01,11,35,16.50
2010,09,01,11,36,16.60
2010,09,01,11,37,16.70
2010,09,01,11,38,16.80
2010,09,01,11,39,16.80
2010,09,01,11,40,16.90
2010,09,01,11,41,17.00
2010,09,01,11,42,17.10
2010,09,01,11,43,17.20
2010,09,01,11,44,17.20
2010,09,01,11,45,17.20
2010,09,01,11,46,17.20
2010,09,01,11,47,17.20
2010,09,01,11,48,17.30
2010,09,01,11,49,17.30
2010,09,01,11,50,17.30
2010,09,01,11,51,17.40
2010,09,01,11,52,17.40
2010,09,01,11,53,17.50
2010,09,01,11,54,17.60
2010,09,01,11,55,17.70
2010,09,01,11,56,17.80
2010,09,01,11,57,17.80
2010,09,01,11,58,17.70
2010,09,01,11,59,17.70
2010,09,01,12,00,17.70
2010,09,01,12,01,17.50
2010,09,01,12,02,17.50
2010,09,01,12,03,17.40
2010,09,01,12,04,17.30
2010,09,01,12,05,17.10
2010,09,01,12,06,17.00
2010,09,01,12,07,17.00
2010,09,01,12,08,17.00
2010,09,01,12,09,17.00
2010,09,01,12,10,17.10
2010,09,01,12,11,17.20
2010,09,01,12,12,17.30
2010,09,01,12,13,17.30
2010,09,01,12,14,17.40
2010,09,01,12,15,17.50
2010,09,01,12,16,17.50
2010,09,01,12,17,17.50
2010,09,01,12,18,17.50
2010,09,01,12,19,17.60
2010,09,01,12,20,17.60
2010,09,01,12,21,17.60
2010,09,01,12,22,17.70
2010,09,01,12,23,17.80
2010,09,01,12,24,17.90
2010,09,01,12,25,18.00
2010,09,01,12,26,18.10
2010,09,01,12,27,18.20
2010,09,01,12,28,18.30
2010,09,01,12,29,18.40
2010,09,01,12,30,18.50
2010,09,01,12,31,18.50
2010,09,01,12,32,18.50
2010,09,01,12,33,18.50
2010,09,01,12,34,18.40
2010,09,01,12,35,18.40
2010,09,01,12,36,18.40
2010,09,01,12,37,18.40
2010,09,01,12,38,18.30
2010,09,01,12,39,18.30
2010,09,01,12,40,18.40
2010,09,01,12,41,18.30
2010,09,01,12,42,18.30
2010,09,01,12,43,18.20
2010,09,01,12,44,18.20
2010,09,01,12,45,18.20
2010,09,01,12,46,18.20
2010,09,01,12,47,18.20
2010,09,01,12,48,18.10
2010,09,01,12,49,18.10
2010,09,01,12,50,18.10
2010,09,01,12,51,18.20
2010,09,01,12,52,18.10
2010,09,01,12,53,18.00
2010,09,01,12,54,17.90
2010,09,01,12,55,17.80
2010,09,01,12,56,17.80
2010,09,01,12,57,17.90
2010,09,01,12,58,17.90
2010,09,01,12,59,18.00
2010,09,01,13,00,18.10
2010,09,01,13,01,18.20
2010,09,01,13,02,18.40
2010,09,01,13,03,18.50
2010,09,01,13,04,18.70
2010,09,01,13,05,18.70
2010,09,01,13,06,18.80
2010,09,01,13,07,18.90
2010,09,01,13,08,18.90
2010,09,01,13,09,18.90
2010,09,01,13,10,18.80
2010,09,01,13,11,18.80
2010,09,01,13,12,18.80
2010,09,01,13,13,18.70
2010,09,01,13,14,18.60
2010,09,01,13,15,18.50
2010,09,01,13,16,18.50
2010,09,01,13,17,18.60
2010,09,01,13,18,18.60
2010,09,01,13,19,18.60
2010,09,01,13,20,18.60
2010,09,01,13,21,18.70
2010,09,01,13,22,18.70
2010,09,01,13,23,18.70
2010,09,01,13,24,18.80
2010,09,01,13,25,18.80
2010,09,01,13,26,18.90
2010,09,01,13,27,18.90
2010,09,01,13,28,19.00
2010,09,01,13,29,19.10
2010,09,01,13,30,19.10
2010,09,01,13,31,19.10
2010,09,01,13,32,19.10
2010,09,01,13,33,19.10
2010,09,01,13,34,19.00
2010,09,01,13,35,19.00
2010,09,01,13,36,19.00
2010,09,01,13,37,19.10
2010,09,01,13,38,19.00
2010,09,01,13,39,19.00
2010,09,01,13,40,18.90
2010,09,01,13,41,18.80
2010,09,01,13,42,18.80
2010,09,01,13,43,18.70
2010,09,01,13,44,18.70
2010,09,01,13,45,18.70
2010,09,01,13,46,18.50
2010,09,01,13,47,18.40
2010,09,01,13,48,18.30
2010,09,01,13,49,18.30
2010,09,01,13,50,18.30
2010,09,01,13,51,18.30
2010,09,01,13,52,18.30
2010,09,01,13,53,18.40
2010,09,01,13,54,18.40
2010,09,01,13,55,18.50
2010,09,01,13,56,18.40
2010,09,01,13,57,18.40
2010,09,01,13,58,18.40
2010,09,01,13,59,18.50
2010,09,01,14,00,18.60
2010,09,01,14,01,18.60
2010,09,01,14,02,18.60
2010,09,01,14,03,18.60
2010,09,01,14,04,18.70
2010,09,01,14,05,18.60
2010,09,01,14,06,18.60
2010,09,01,14,07,18.60
2010,09,01,14,08,18.60
2010,09,01,14,09,18.60
2010,09,01,14,10,18.70
2010,09,01,14,11,18.70
2010,09,01,14,12,18.80
2010,09,01,14,13,18.90
2010,09,01,14,14,19.00
2010,09,01,14,15,19.10
2010,09,01,14,16,19.20
2010,09,01,14,17,19.30
2010,09,01,14,18,19.40
2010,09,01,14,19,19.40
2010,09,01,14,20,19.30
2010,09,01,14,21,19.30
2010,09,01,14,22,19.30
2010,09,01,14,23,19.30
2010,09,01,14,24,19.30
2010,09,01,14,25,19.30
2010,09,01,14,26,19.30
2010,09,01,14,27,19.30
2010,09,01,14,28,19.30
2010,09,01,14,29,19.40
2010,09,01,14,30,19.40
2010,09,01,14,31,19.40
2010,09,01,14,32,19.40
2010,09,01,14,33,19.30
2010,09,01,14,34,19.30
2010,09,01,14,35,19.20
2010,09,01,14,36,19.10
2010,09,01,14,37,19.10
2010,09,01,14,38,19.10
2010,09,01,14,39,19.10
2010,09,01,14,40,19.20
2010,09,01,14,41,19.20
2010,09,01,14,42,19.40
2010,09,01,14,43,19.50
2010,09,01,14,44,19.60
2010,09,01,14,45,19.70
2010,09,01,14,46,19.80
2010,09,01,14,47,19.90
2010,09,01,14,48,20.10
2010,09,01,14,49,20.20
2010,09,01,14,50,20.30
2010,09,01,14,51,20.30
2010,09,01,14,52,20.40
2010,09,01,14,53,20.40
2010,09,01,14,54,20.30
2010,09,01,14,55,20.30
2010,09,01,14,56,20.30
2010,09,01,14,57,20.30
2010,09,01,14,58,20.30
2010,09,01,14,59,20.30
2010,09,01,15,00,20.40
2010,09,01,15,01,20.40
2010,09,01,15,02,20.40
2010,09,01,15,03,20.30
2010,09,01,15,04,20.20
2010,09,01,15,05,20.10
2010,09,01,15,06,20.00
2010,09,01,15,07,19.90
2010,09,01,15,08,19.70
2010,09,01,15,09,19.70
2010,09,01,15,10,19.50
2010,09,01,15,11,19.40
2010,09,01,15,12,19.30
2010,09,01,15,13,19.30
2010,09,01,15,14,19.20
2010,09,01,15,15,19.10
2010,09,01,15,16,19.00
2010,09,01,15,17,18.90
2010,09,01,15,18,18.80
2010,09,01,15,19,18.80
2010,09,01,15,20,18.70
2010,09,01,15,21,18.70
2010,09,01,15,22,18.70
2010,09,01,15,23,18.80
2010,09,01,15,24,18.80
2010,09,01,15,25,18.90
2010,09,01,15,26,19.00
2010,09,01,15,27,19.00
2010,09,01,15,28,19.10
2010,09,01,15,29,19.20
2010,09,01,15,30,19.30
2010,09,01,15,31,19.40
2010,09,01,15,32,19.40
2010,09,01,15,33,19.30
2010,09,01,15,34,19.30
2010,09,01,15,35,19.20
2010,09,01,15,36,19.20
2010,09,01,15,37,19.20
2010,09,01,15,38,19.30
2010,09,01,15,39,19.30
2010,09,01,15,40,19.40
2010,09,01,15,41,19.60
2010,09,01,15,42,19.70
2010,09,01,15,43,19.80
2010,09,01,15,44,19.90
2010,09,01,15,45,20.10
2010,09,01,15,46,20.20
2010,09,01,15,47,20.20
2010,09,01,15,48,20.30
2010,09,01,15,49,20.40
2010,09,01,15,50,20.50
2010,09,01,15,51,20.60
2010,09,01,15,52,20.60
2010,09,01,15,53,20.70
2010,09,01,15,54,20.80
2010,09,01,15,55,20.80
2010,09,01,15,56,20.80
2010,09,01,15,57,20.80
2010,09,01,15,58,20.80
2010,09,01,15,59,20.80
2010,09,01,16,00,20.70
2010,09,01,16,01,20.60
2010,09,01,16,02,20.50
2010,09,01,16,03,20.40
2010,09,01,16,04,20.30
2010,09,01,16,05,20.20
2010,09,01,16,06,20.20
2010,09,01,16,07,20.20
2010,09,01,16,08,20.20
2010,09,01,16,09,20.30
2010,09,01,16,10,20.30
2010,09,01,16,11,20.40
2010,09,01,16,12,20.40
2010,09,01,16,13,20.40
2010,09,01,16,14,20.50
2010,09,01,16,15,20.50
2010,09,01,16,16,20.60
2010,09,01,16,17,20.60
2010,09,01,16,18,20.60
2010,09,01,16,19,20.70
2010,09,01,16,20,20.70
2010,09,01,16,21,20.70
2010,09,01,16,22,20.70
2010,09,01,16,23,20.70
2010,09,01,16,24,20.70
2010,09,01,16,25,20.70
2010,09,01,16,26,20.70
2010,09,01,16,27,20.70
2010,09,01,16,28,20.70
2010,09,01,16,29,20.70
2010,09,01,16,30,20.70
2010,09,01,16,31,20.80
2010,09,01,16,32,20.80
2010,09,01,16,33,20.80
2010,09,01,16,34,20.90
2010,09,01,16,35,21.00
2010,09,01,16,36,21.10
2010,09,01,16,37,21.10
2010,09,01,16,38,21.10
2010,09,01,16,39,21.10
2010,09,01,16,40,21.20
2010,09,01,16,41,21.20
2010,09,01,16,42,21.20
2010,09,01,16,43,21.20
2010,09,01,16,44,21.20
2010,09,01,16,45,21.20
2010,09,01,16,46,21.20
2010,09,01,16,47,21.10
2010,09,01,16,48,21.00
2010,09,01,16,49,20.80
2010,09,01,16,50,20.60
2010,09,01,16,51,20.40
2010,09,01,16,52,20.30
2010,09,01,16,53,20.10
2010,09,01,16,54,19.90
2010,09,01,16,55,19.70
2010,09,01,16,56,19.60
2010,09,01,16,57,19.60
2010,09,01,16,58,19.50
2010,09,01,16,59,19.50
2010,09,01,17,00,19.60
2010,09,01,17,01,19.60
2010,09,01,17,02,19.60
2010,09,01,17,03,19.50
2010,09,01,17,04,19.50
2010,09,01,17,05,19.50
2010,09,01,17,06,19.50
2010,09,01,17,07,19.50
2010,09,01,17,08,19.50
2010,09,01,17,09,19.40
2010,09,01,17,10,19.40
2010,09,01,17,11,19.30
2010,09,01,17,12,19.30
2010,09,01,17,13,19.20
2010,09,01,17,14,19.10
2010,09,01,17,15,19.00
2010,09,01,17,16,19.00
2010,09,01,17,17,18.90
2010,09,01,17,18,18.80
2010,09,01,17,19,18.80
2010,09,01,17,20,18.70
2010,09,01,17,21,18.60
2010,09,01,17,22,18.60
2010,09,01,17,23,18.60